Radioactive Concentration measured by Seawater Radiation Monitor near Fukushima Daiichi Nuclear Power Station
Date,Time,Cs137(Bq/L),Cs134(Bq/L),Total β(Bq/L)
2016/11/19,00:00,1.1,0.13,ND
2016/11/19,00:10,1.1,0.12,ND
2016/11/19,00:20,1.1,0.11,ND
2016/11/19,00:30,1.1,0.12,ND
2016/11/19,00:40,1.1,0.12,ND
2016/11/19,00:50,0.99,0.14,ND
2016/11/19,01:00,0.99,0.15,ND
2016/11/19,01:10,0.97,0.14,ND
2016/11/19,01:20,0.96,0.15,ND
2016/11/19,01:30,1.0,0.13,ND
2016/11/19,01:40,1.0,0.14,ND
2016/11/19,01:50,1.0,0.13,ND
2016/11/19,02:00,1.0,0.12,ND
2016/11/19,02:10,0.98,0.12,ND
2016/11/19,02:20,1.0,0.12,ND
2016/11/19,02:30,1.0,0.12,ND
2016/11/19,02:40,1.0,0.11,ND
2016/11/19,02:50,1.0,0.11,ND
2016/11/19,03:00,1.0,0.11,ND
2016/11/19,03:10,1.0,0.12,ND
2016/11/19,03:20,0.99,0.13,ND
2016/11/19,03:30,0.94,0.14,ND
2016/11/19,03:40,0.96,0.14,ND
2016/11/19,03:50,0.97,0.14,ND
2016/11/19,04:00,0.98,0.14,ND
2016/11/19,04:10,0.99,0.13,ND
2016/11/19,04:20,1.1,0.11,ND
2016/11/19,04:30,1.1,0.10,ND
2016/11/19,04:40,1.1,0.11,ND
2016/11/19,04:50,1.0,0.11,ND
2016/11/19,05:00,1.0,0.10,ND
2016/11/19,05:10,1.0,0.11,ND
2016/11/19,05:20,1.0,0.11,ND
2016/11/19,05:30,1.0,0.099,ND
2016/11/19,05:40,1.0,0.11,ND
2016/11/19,05:50,1.0,0.11,ND
2016/11/19,06:00,0.90,0.13,ND
2016/11/19,06:10,0.96,0.12,ND
2016/11/19,06:20,0.97,0.12,ND
2016/11/19,06:30,0.94,0.14,ND
2016/11/19,06:40,0.96,0.12,ND
2016/11/19,06:50,0.97,0.12,ND
2016/11/19,07:00,0.99,0.12,ND
2016/11/19,07:10,1.0,0.13,ND
2016/11/19,07:20,0.99,0.14,ND
2016/11/19,07:30,0.98,0.14,ND
2016/11/19,07:40,1.0,0.14,ND
2016/11/19,07:50,0.95,0.15,ND
2016/11/19,08:00,0.95,0.16,8.8
2016/11/19,08:10,0.97,0.15,ND
2016/11/19,08:20,0.98,0.14,ND
2016/11/19,08:30,1.1,0.13,ND
2016/11/19,08:40,1.1,0.13,9.0
2016/11/19,08:50,1.1,0.13,ND
2016/11/19,09:00,1.1,0.13,ND
2016/11/19,09:10,1.2,0.14,9.2
2016/11/19,09:20,1.2,0.14,9.9
2016/11/19,09:30,1.2,0.13,ND
2016/11/19,09:40,1.2,0.14,ND
2016/11/19,09:50,1.3,0.14,ND
2016/11/19,10:00,1.2,0.14,ND
2016/11/19,10:10,1.2,0.15,ND
2016/11/19,10:20,1.2,0.14,ND
2016/11/19,10:30,1.2,0.15,ND
2016/11/19,10:40,1.2,0.16,ND
2016/11/19,10:50,1.2,0.15,ND
2016/11/19,11:00,1.2,0.14,ND
2016/11/19,11:10,1.2,0.15,ND
2016/11/19,11:20,1.2,0.15,ND
2016/11/19,11:30,1.2,0.16,ND
2016/11/19,11:40,1.2,0.15,ND
2016/11/19,11:50,1.2,0.17,ND
2016/11/19,12:00,1.2,0.18,ND
2016/11/19,12:10,1.2,0.18,9.7
2016/11/19,12:20,1.2,0.18,11
2016/11/19,12:30,1.3,0.15,14
2016/11/19,12:40,1.2,0.20,14
2016/11/19,12:50,1.2,0.20,15
2016/11/19,13:00,1.1,0.20,15
2016/11/19,13:10,1.2,0.19,14
2016/11/19,13:20,1.1,0.20,10
2016/11/19,13:30,1.1,0.20,ND
2016/11/19,13:40,1.1,0.19,ND
2016/11/19,13:50,1.1,0.20,ND
2016/11/19,14:00,1.2,0.16,ND
2016/11/19,14:10,1.2,0.15,ND
2016/11/19,14:20,1.2,0.18,ND
2016/11/19,14:30,1.2,0.18,ND
2016/11/19,14:40,1.2,0.19,ND
2016/11/19,14:50,1.2,0.15,ND
2016/11/19,15:00,1.2,0.16,ND
2016/11/19,15:10,1.1,0.21,ND
2016/11/19,15:20,1.0,0.23,ND
2016/11/19,15:30,1.2,0.18,ND
2016/11/19,15:40,1.2,0.21,ND
2016/11/19,15:50,1.2,0.22,ND
2016/11/19,16:00,1.2,0.19,ND
2016/11/19,16:10,1.2,0.19,ND
2016/11/19,16:20,1.2,0.19,ND
2016/11/19,16:30,1.2,0.19,ND
2016/11/19,16:40,1.1,0.23,ND
2016/11/19,16:50,1.0,0.21,ND
2016/11/19,17:00,1.0,0.21,ND
2016/11/19,17:10,1.0,0.20,ND
2016/11/19,17:20,1.0,0.17,ND
2016/11/19,17:30,0.99,0.17,ND
2016/11/19,17:40,1.1,0.11,ND
2016/11/19,17:50,1.1,0.11,ND
2016/11/19,18:00,0.94,0.13,ND
2016/11/19,18:10,1.0,0.093,ND
2016/11/19,18:20,1.0,0.088,ND
2016/11/19,18:30,1.0,0.081,ND
2016/11/19,18:40,1.0,0.11,ND
2016/11/19,18:50,1.0,0.12,ND
2016/11/19,19:00,0.97,0.13,ND
2016/11/19,19:10,0.91,0.14,ND
2016/11/19,19:20,0.97,0.14,ND
2016/11/19,19:30,0.91,0.15,ND
2016/11/19,19:40,0.88,0.15,ND
2016/11/19,19:50,0.92,0.14,10
2016/11/19,20:00,0.92,0.13,10
2016/11/19,20:10,0.99,0.12,ND
2016/11/19,20:20,0.92,0.13,ND
2016/11/19,20:30,0.91,0.13,ND
2016/11/19,20:40,0.92,0.14,ND
2016/11/19,20:50,0.91,0.15,ND
2016/11/19,21:00,1.0,0.13,ND
2016/11/19,21:10,1.0,0.13,ND
2016/11/19,21:20,1.1,0.10,ND
2016/11/19,21:30,1.1,0.11,9.9
2016/11/19,21:40,1.1,0.11,8.9
2016/11/19,21:50,1.0,0.14,ND
2016/11/19,22:00,1.1,0.10,ND
2016/11/19,22:10,0.96,0.14,ND
2016/11/19,22:20,0.97,0.14,ND
2016/11/19,22:30,0.95,0.14,ND
2016/11/19,22:40,1.1,0.12,ND
2016/11/19,22:50,1.1,0.094,ND
2016/11/19,23:00,1.2,0.11,ND
2016/11/19,23:10,1.2,0.12,ND
2016/11/19,23:20,1.2,0.12,ND
2016/11/19,23:30,1.2,0.14,ND
2016/11/19,23:40,1.1,0.14,11
2016/11/19,23:50,1.1,0.15,9.9
